Other Public Products
Issued by NWS Grand Forks, ND

Home | Current Version | Previous Version | Graphics & Text | Print | Product List | Glossary On
Versions: 1 2 3 4 5 6 7 8 9 10 11 12 13 14 15 16 17 18 19 20 21 22 23 24 25 26 27 28 29 30 31 32 33 34 35 36 37 38 39 40 41 42 43 44 45 46 47 48 49 50
000
FPUS83 KFGF 301331
OPUFGF
PRAIRIE TO PINES WEATHER ROUNDUP
NATIONAL WEATHER SERVICE EASTERN NORTH DAKOTA/GRAND FORKS ND
800 AM CDT WED JUL 30 2014

 **SATELLITE DATA USED TO AUGMENT SKY COVER AT AUTOMATED STATIONS**
 *****  WEATHER ACROSS EASTERN NORTH DAKOTA  *****

CITY           SKY/WX    TMP DP  RH WIND       PRES   REMARKS
GRAND FORKS    MOSUNNY   60  56  86 CALM      30.12S
GRAND FORKS AF SUNNY     61  60  97 W5        30.14R
GRAND CITY NWS   N/A     61 N/A N/A MISG        N/A
BUXTON           N/A     64  61  92 W2          N/A
DEVILS LAKE    SUNNY     63  55  77 NW3       30.15S
FARGO          SUNNY     60  55  83 CALM      30.13S
WAHPETON ARPT  SUNNY     59  54  82 CALM      30.15R
$$

 *****  WEATHER ACROSS CENTRAL AND WESTERN NORTH DAKOTA  *****

CITY           SKY/WX    TMP DP  RH WIND       PRES   REMARKS
JAMESTOWN      SUNNY     60  56  86 CALM      30.16S
BISMARCK       SUNNY     60  57  89 NE3       30.18R
MINOT          SUNNY     59  57  93 CALM      30.16S
MINOT AFB      SUNNY     59  59 100 W5        30.16R
GARRISON         N/A     59  58  96 CALM      30.17S
WILLISTON      SUNNY     56  53  90 NE3       30.19R
DICKINSON      SUNNY     56  55  97 CALM      30.18S
HETTINGER      SUNNY     52  50  93 CALM      30.19R FOG
$$

 *****  OTHER OBSERVATIONS NORTHEAST NORTH DAKOTA  *****

CITY           SKY/WX    TMP DP  RH WIND       PRES   REMARKS
WALHALLA         N/A     64  61  88 CALM        N/A
LANGDON        FAIR      57  55  94 NW3       30.15S
CAVALIER       FAIR      63  57  82 CALM      30.12S HAZE
GRAFTON        FAIR      63  54  72 W6        30.12S
CANDO          FAIR      59  57  94 CALM      30.16S
FORT TOTTEN      N/A     58  56  92 CALM      29.95
ROLLA          FAIR      64  61  88 W6        30.17S
RUGBY          FOG       59  59 100 CALM      30.16S VSB 1/4
 ***** THE ABOVE OBSERVATIONS ARE NON NWS ARE NOT QUALITY
        CONTROLLED AND MAY MIS-REPORT RAIN FOR SNOW...
$$

 *****  OTHER OBSERVATIONS SOUTHEAST NORTH DAKOTA *****

CITY           SKY/WX    TMP DP  RH WIND       PRES   REMARKS
COOPERSTOWN    NOT AVBL
VALLEY CITY    FAIR      59  59 100 NW3       30.16S
OAKES          NOT AVBL
GWINNER        SUNNY     61  59  94 W3        30.16S
BUFFALO          N/A     60  54  79 W2          N/A
WYNDMERE       NOT AVBL
 ***** THE ABOVE OBSERVATIONS ARE NON NWS ARE NOT QUALITY
       CONTROLLED AND MAY MIS-REPORT RAIN FOR SNOW...
$$

  *****  WEATHER ACROSS NORTHERN MINNESOTA  *****

CITY           SKY/WX    TMP DP  RH WIND       PRES   REMARKS
FLAG ISLAND    SUNNY     64  57  77 NW13      30.06S
WARROAD        SUNNY     63  57  82 W7        30.09S
ROSEAU         SUNNY     61  55  82 W6        30.10S
HALLOCK        SUNNY     61  55  82 CALM      30.12S
THF RVR FALLS  SUNNY     61  55  82 NW7       30.12S
HALSTAD          N/A     63  57  81 N2          N/A
FOSSTON        SUNNY     57  55  94 CALM      30.13S
BAUDETTE       SUNNY     62  57  83 NW6       30.08F
WASKISH        SUNNY     64  57  77 NW6       30.08F
CROOKSTON      SUNNY     61  57  88 NW3       30.13S
$$
  *****  WEATHER ACROSS CENTRAL AND WEST MINNESOTA  *****

CITY           SKY/WX    TMP DP  RH WIND       PRES   REMARKS
BEMIDJI        SUNNY     60  57  88 NW8       30.11S
PARK RAPIDS    SUNNY     58  56  93 W5        30.12S
WADENA         SUNNY     59  55  88 NW6       30.13R
DETROIT LAKES  SUNNY     61  55  82 NW3       30.15S
MOORHEAD       SUNNY     61  61 100 CALM      30.14S
FERGUS FALLS   SUNNY     61  55  82 CALM      30.15R
ELBOW LAKE     FAIR      60  56  86 NW7       30.14S
MORRIS MN      SUNNY     61  57  88 NW3       30.14R
STAPLES        SUNNY     59  55  88 NW3       30.12S
WHEATON        SUNNY     61  57  88 CALM      30.16S
$$
  *****  WEATHER ELSEWHERE ACROSS MINNESOTA  *****

CITY           SKY/WX    TMP DP  RH WIND       PRES   REMARKS
DULUTH         SUNNY     58  54  86 CALM      30.08S
INTRNTL FALLS  PTSUNNY   57  56  96 W5        30.05S
ELY            MOSUNNY   55  55 100 S3        30.07S
CLOQUET        SUNNY     59  55  88 CALM      30.08F
BRAINERD       SUNNY     61  57  87 CALM      30.11R
HIBBING        CLOUDY    54  52  93 CALM      30.08S FOG
ALEXANDRIA     SUNNY     63  56  78 NW6       30.15R
SAINT CLOUD    SUNNY     64  57  78 N6        30.10R
MINNEAPOLIS    SUNNY     65  58  78 CALM      30.09R
$$

  *****  WEATHER ACROSS SOUTH DAKOTA  *****

CITY           SKY/WX    TMP DP  RH WIND       PRES   REMARKS
SIOUX FALLS    MOSUNNY   58  55  90 CALM      30.17R
BROOKINGS      NOT AVBL
WATERTOWN      SUNNY     56  52  86 CALM      30.17R
HURON          SUNNY     60  56  86 CALM      30.16S
SISSETON         N/A     58  55  90 N3        30.14R
ABERDEEN       SUNNY     58  53  84 CALM      30.16S
MITCHELL       SUNNY     58  55  90 CALM      30.17R
PIERRE         SUNNY     63  58  83 SE5       30.15R
MOBRIDGE       MOSUNNY   63  57  81 E6        30.14R
RAPID CITY     SUNNY     61  56  83 NW7       30.20S
$$

  *****  SOME WEATHER IN NEARBY STATES *****

CITY           SKY/WX    TMP DP  RH WIND       PRES   REMARKS
GLASGOW MT     MOSUNNY   61  54  77 E7        30.18S
GREAT FALLS MT CLEAR     69  47  45 S9        30.17S
CHEYENNE WY    LGT RAIN  56  54  93 NE3       30.35R
SCOTTSBLUFF NE CLOUDY    63  59  87 NW3       30.27R
OMAHA NE       MOSUNNY   61  57  87 N6        30.15S
DES MOINES IA  MOSUNNY   63  56  78 NW3       30.11R
DAVENPORT IA   SUNNY     61  57  87 N3        30.08R
CHICAGO IL     MOSUNNY   65  54  67 NW7       30.03R
EAU CLAIRE WI  FOG       57  57 100 E6        30.09R VSB 1
LA CROSSE WI   SUNNY     63  59  87 NW5       30.07
$$

  *****  SOME NATIONAL WEATHER *****

CITY           SKY/WX    TMP DP  RH WIND       PRES   REMARKS
LA GUARDIA NY  SUNNY     70  53  54 VRB5      30.03R
RALEIGH NC     PTSUNNY   69  61  75 E6        30.08S
ATLANTA GA     MOSUNNY   69  53  56 NE8       30.06R
NEW ORLEANS LA MOSUNNY   78  62  57 E7        30.07R
OKLAHOMA CITY  RAIN      66  64  94 SW8       30.10R FOG
ALBUQUERQUE NM PTCLDY    67  59  75 N3        30.22R
SALT LAKE CITY MOCLDY    66  65  96 CALM      30.17S
LOS ANGELES CA MOCLDY    68  63  84 CALM      29.94S
BOISE ID       MOCLDY    74  51  44 SE6       30.10R
SEATTLE WA     PTCLDY    58  54  86 CALM      30.14S
$$

*** WEATHER ACROSS MANITOBA...SASKATCHEWAN AND ONTARIO ***
                ***ONTARIO***

CITY           SKY/WX    TMP DP  RH WIND       PRES   REMARKS
GERALDTON      LGT RAIN  55  54  94 W5        29.94F
THUNDER BAY    CLOUDY    54  50  87 W6        30.02F
SIOUX LOOKOUT  MOSUNNY   61  59  94 VRB2      30.02S
TORONTO        PTSUNNY   63  55  77 W6        29.96S
BIG TROUT LK   SUNNY     54  45  71 N7        29.99S
PICKLE LAKE    CLOUDY    57  48  72 NW6       29.98S
DRYDEN         SUNNY     59  57  94 W8        30.02S
KENORA         PTSUNNY   63  54  72 NW8       30.07R
$$
                *** MANITOBA***

CITY           SKY/WX    TMP DP  RH WIND       PRES   REMARKS
BRANDON        MOSUNNY   59  55  88 W6        30.15S
DAUPHIN        SUNNY     63  59  88 W9        30.12S
ISLAND LAKE    MOSUNNY   63  59  88 CALM      30.07S
PILOT MOUND      N/A     55  54  94 SW1         N/A
THE PAS        MOSUNNY   66  59  77 NW3       30.08S
THOMPSON       SUNNY     59  59 100 CALM      30.08S
WINNIPEG       SUNNY     61  55  82 W8        30.11S
LYNN LAKE      SUNNY     66  57  72 W6        30.09S
CHURCHILL      MOSUNNY   55  54  94 SE5       30.11R
$$
                ***SASKATCHEWAN***

CITY           SKY/WX    TMP DP  RH WIND       PRES   REMARKS
ESTEVAN        MOSUNNY   57  57 100 N3        30.20R
KINDERSLEY     MOSUNNY   63  55  77 S7        30.10R
LLOYDMINSTER   PTSUNNY   64  59  82 SE9       30.08
PRINCE ALBERT  PTSUNNY   66  61  82 SW3       30.15R
REGINA         SUNNY     59  55  88 SE6       30.20S
YORKTON        SUNNY     63  57  82 W3        30.17S
N. BATTLEFORD    N/A     66  61  82 E8        30.12F



USA.gov is the U.S. government's official web portal to all federal, state and local government web resources and services.